Content
SEND FEEDBACK

Daily
Averages
Monthly
Summary
Mexico

COZUMEL, QUINTANA ROO


Home > North America > Mexico > Quintana Roo
Elevation: 15 feet     Latitude: 20 31N     Longitude: 086 56W

WEATHER
 
SELECT A DAY
Number of Records: 124,870;   Date Range: 1/1/95 - 9/21/14
 
SHARE

PRINT THIS DATA

[ ← Previous Day ]
WEATHER ALMANAC - OCTOBER 18, 2013
[ Next Day → ]
[ °C ]   °F
Weather ElementAverageHighLow
Temperature73.6 °F82.4 °F (10:40 am)64.4 °F (4:52 am)
Dewpoint69.4 °F73.4 °F (3:40 pm)64.4 °F (4:52 am)
Humidity88.1 %100 % (1:49 am)66 % (10:40 am)
Barometer29.91 in29.98 in (9:47 am)29.88 in (5:45 pm)
Wind Speed2.7 mph8.1 mph (11:43 am)
Weather ElementAverage
Visibility7.5 mi
Wind DirectionNNE (37.8 °)

Weather ElementTotal
Precipitation---
Cooling Degree Days8.4 (Base 65)
Growing Degree Days23.4 (Base 50)
Averaged from 23 records on October 18, 2013
WEATHER CONDITIONS BREAKOUT
WIND DIRECTION BREAKOUT
WEATHER BY HOUR - OCTOBER 18, 2013
[ °C ]   °F
Local TimeTemperatureDewpointHumidityBarometerVisibilityWind DirectionWind SpeedGust SpeedPrecipitationEventsConditions
1:49 AM68.0 °F68.0 °F100 %29.91 in7.0 miCalmPartly Cloudy
2:47 AM66.2 °F66.2 °F100 %29.90 in7.0 miCalmPartly Cloudy
3:48 AM66.2 °F66.2 °F100 %29.92 in7.0 miCalmPartly Cloudy
4:52 AM64.4 °F64.4 °F100 %29.89 in7.0 miCalmPartly Cloudy
5:43 AM64.4 °F64.4 °F100 %29.89 in7.0 miCalmPartly Cloudy
6:42 AM64.4 °F64.4 °F100 %29.89 in7.0 miCalmPartly Cloudy
7:40 AM68.0 °F68.0 °F100 %29.92 in7.0 miCalmPartly Cloudy
8:41 AM78.8 °F71.6 °F78 %29.94 in7.0 miEast (90°)3.5 mphPartly Cloudy
9:47 AM80.6 °F69.8 °F70 %29.98 in8.0 miENE (70°)6.9 mphScattered Clouds
10:40 AM82.4 °F69.8 °F66 %29.96 in8.0 miNE (40°)5.8 mphScattered Clouds
11:43 AM82.4 °F71.6 °F70 %29.95 in8.0 miEast (90°)8.1 mphScattered Clouds
12:52 PM82.4 °F69.8 °F66 %29.90 in8.0 miENE (60°)8.1 mphScattered Clouds
1:47 PM82.4 °F71.6 °F70 %29.90 in8.0 miEast (100°)6.9 mphScattered Clouds
2:45 PM80.6 °F71.6 °F74 %29.89 in8.0 miEast (80°)4.6 mphScattered Clouds
3:40 PM77.0 °F73.4 °F89 %29.90 in8.0 miENE (60°)4.6 mphScattered Clouds
4:54 PM78.8 °F71.6 °F78 %29.89 in8.0 miEast (90°)4.6 mphScattered Clouds
5:45 PM78.8 °F71.6 °F78 %29.88 in8.0 miEast (100°)4.6 mphScattered Clouds
6:46 PM73.4 °F71.6 °F94 %29.88 in8.0 miCalmScattered Clouds
7:45 PM73.4 °F71.6 °F94 %29.90 in8.0 miEast (90°)3.5 mphScattered Clouds
8:40 PM69.8 °F69.8 °F100 %29.92 in7.0 miCalmScattered Clouds
9:50 PM69.8 °F69.8 °F100 %29.96 in7.0 miCalmScattered Clouds
10:45 PM69.8 °F69.8 °F100 %29.93 in7.0 miCalmPartly Cloudy
11:40 PM69.8 °F69.8 °F100 %29.92 in7.0 miCalmClear
Hourly data recorded from MMCZ, located miles away from Cozumel, Quintana Roo







STORIES FROM OUR PARTNERS